Location: Newark
(38.6500°N, 6.7333°W)
Time: 11:41:57
(UTC+00:00)

Envisat - Visible Passes

Search period start: 25 March 2019 00:00
Search period end: 04 April 2019 00:00
Orbit: 764 x 766 km, 98.2° (Epoch: 24 March)

Date Brightness Start Highest point End Pass type
(mag) Time Alt. Az. Time Alt. Az. Time Alt. Az.
25 Mar 5.5 20:07:18 10° SW 20:11:14 22° W 20:15:11 10° NW visible
26 Mar 4.0 19:29:21 10° S 19:34:16 51° W 19:39:15 10° NNW visible
27 Mar 6.0 20:35:02 10° WSW 20:37:01 12° W 20:39:00 10° WNW visible
28 Mar 5.1 19:55:35 10° SSW 19:59:56 28° W 20:04:18 10° NW visible
29 Mar 3.5 19:18:01 10° S 19:23:02 66° WSW 19:28:07 10° NNW visible
30 Mar 5.8 20:22:38 10° SW 20:25:40 16° W 20:28:44 10° NW visible
31 Mar 4.7 19:44:01 10° SSW 19:48:39 36° W 19:53:19 10° NNW visible
02 Apr 5.6 20:10:38 10° SW 20:14:21 20° W 20:18:06 10° NW visible
03 Apr 4.2 19:32:32 10° S 19:37:23 46° W 19:42:16 10° NNW visible
